GW2129 Weather Reports


Display with metric or nautical units.
time (UTC)temp
F
wind
direction
speed
MPH
gust
MPH
rain 1hr
in
rain 24hr
in
rain mn
in
humidity
%
barometer
mb
20260503235758 78 267 2.0 3.0 0.00 0.06 0.06 39 1018.1
20260503235256 78 128 2.0 6.0 0.00 0.06 0.06 39 1017.8
20260503234753 80 252 0.0 3.0 0.00 0.06 0.06 38 1018.0
20260503234251 79 314 0.0 6.0 0.00 0.06 0.06 37 1018.1
20260503233748 80 159 1.0 4.0 0.00 0.06 0.06 37 1018.1
20260503233244 80 272 2.0 5.0 0.00 0.06 0.06 37 1018.1
20260503232741 80 32 2.0 5.0 0.00 0.06 0.06 35 1018.1
20260503232238 80 238 1.0 4.0 0.00 0.06 0.06 36 1017.9
20260503231736 79 124 3.0 7.0 0.00 0.06 0.06 36 1017.7
20260503231232 80 205 1.0 6.0 0.00 0.06 0.06 35 1018.1
20260503230728 80 209 2.0 4.0 0.00 0.06 0.06 35 1018.1
20260503230226 80 183 3.0 7.0 0.00 0.06 0.06 35 1017.9
20260503225723 81 114 3.0 5.0 0.00 0.06 0.06 36 1018.0
20260503225218 81 12 3.0 4.0 0.00 0.06 0.06 36 1018.1
20260503224715 81 235 3.0 5.0 0.00 0.06 0.06 35 1018.1
20260503224213 81 0 4.0 5.0 0.00 0.06 0.06 36 1018.2
20260503223710 81 199 2.0 5.0 0.00 0.06 0.06 35 1018.2
20260503223207 81 335 3.0 5.0 0.00 0.06 0.06 36 1018.1
20260503222704 80 262 1.0 4.0 0.00 0.06 0.06 35 1018.4
20260503222202 79 193 3.0 5.0 0.00 0.06 0.06 35 1018.5
20260503221700 80 240 4.0 7.0 0.00 0.06 0.06 35 1018.4
20260503221157 82 188 1.0 4.0 0.00 0.06 0.06 33 1018.3
20260503220654 80 240 4.0 5.0 0.00 0.06 0.06 34 1018.7
20260503220150 80 191 2.0 4.0 0.00 0.06 0.06 34 1018.7
20260503215647 80 252 2.0 4.0 0.00 0.06 0.06 35 1018.9
20260503215144 81 265 3.0 5.0 0.00 0.06 0.06 34 1018.9
20260503214643 82 286 4.0 5.0 0.00 0.06 0.06 34 1018.9
20260503214138 82 156 3.0 5.0 0.00 0.06 0.06 35 1019.0
20260503213637 81 277 3.0 4.0 0.00 0.06 0.06 35 1018.8
20260503213134 79 212 3.0 5.0 0.00 0.06 0.06 36 1019.1
20260503212631 81 93 3.0 5.0 0.00 0.06 0.06 35 1019.2
20260503212129 81 357 2.0 5.0 0.00 0.06 0.06 34 1019.2
20260503211626 82 248 3.0 5.0 0.00 0.06 0.06 34 1019.6
20260503211121 82 215 3.0 4.0 0.00 0.06 0.06 34 1019.6
20260503210618 81 251 3.0 5.0 0.00 0.06 0.06 33 1019.7
20260503210114 80 159 2.0 4.0 0.00 0.06 0.06 34 1019.9
20260503205605 82 196 2.0 5.0 0.00 0.06 0.06 34 1020.0
20260503205101 81 305 1.0 9.0 0.00 0.06 0.06 36 1020.0
20260503204558 81 102 2.0 4.0 0.00 0.06 0.06 39 1020.1
20260503204056 82 316 3.0 7.0 0.00 0.06 0.06 36 1020.3
20260503203553 80 258 2.0 4.0 0.00 0.06 0.06 37 1020.4
20260503203050 80 121 3.0 12.0 0.00 0.06 0.06 37 1020.4
20260503202548 81 180 2.0 4.0 0.00 0.06 0.06 37 1020.6
20260503202045 81 265 1.0 6.0 0.00 0.06 0.06 36 1020.5
20260503201543 80 303 4.0 6.0 0.00 0.06 0.06 35 1020.7
20260503201040 80 246 4.0 9.0 0.00 0.06 0.06 35 1020.8
20260503200536 79 312 0.0 5.0 0.00 0.06 0.06 38 1020.8
20260503200033 79 132 4.0 7.0 0.00 0.06 0.06 35 1020.8
20260503195530 80 127 2.0 5.0 0.00 0.06 0.06 35 1020.8
20260503195027 80 253 3.0 4.0 0.00 0.06 0.06 35 1021.0
20260503194525 80 232 2.0 6.0 0.00 0.06 0.06 34 1021.0
20260503194024 80 137 2.0 7.0 0.00 0.06 0.06 35 1021.2
20260503193521 80 161 2.0 5.0 0.00 0.06 0.06 33 1021.0
20260503193016 79 116 2.0 4.0 0.00 0.06 0.06 36 1021.3
20260503192512 80 146 1.0 12.0 0.00 0.06 0.06 35 1021.4
20260503192008 79 311 2.0 5.0 0.00 0.06 0.06 37 1021.3
20260503191506 79 148 7.0 7.0 0.00 0.06 0.06 36 1021.4
20260503191002 79 228 7.0 7.0 0.00 0.06 0.06 36 1021.4
20260503190459 80 140 7.0 9.0 0.00 0.06 0.06 34 1021.5
20260503185956 80 125 2.0 4.0 0.00 0.06 0.06 38 1021.7
20260503185452 80 281 3.0 6.0 0.00 0.06 0.06 37 1021.7
20260503184952 79 255 2.0 6.0 0.00 0.06 0.06 37 1021.9
20260503184449 79 133 5.0 9.0 0.00 0.06 0.06 37 1021.9
20260503183945 79 342 1.0 6.0 0.00 0.06 0.06 37 1021.8
20260503183442 79 91 2.0 5.0 0.00 0.06 0.06 41 1021.8
20260503182939 78 155 3.0 7.0 0.00 0.06 0.06 39 1022.1
20260503182437 78 127 4.0 6.0 0.00 0.06 0.06 38 1022.2
20260503181935 79 114 3.0 4.0 0.00 0.06 0.06 40 1022.2
20260503181432 78 145 5.0 9.0 0.00 0.06 0.06 41 1022.1
20260503180927 77 118 5.0 7.0 0.00 0.06 0.06 40 1022.3
20260503180427 79 196 1.0 4.0 0.00 0.06 0.06 40 1022.5
20260503175923 77 164 4.0 5.0 0.00 0.06 0.06 42 1022.6
20260503175421 77 316 2.0 4.0 0.00 0.06 0.06 42 1022.8
20260503174916 77 295 3.0 9.0 0.00 0.06 0.06 43 1022.7
20260503174414 78 129 4.0 7.0 0.00 0.06 0.06 42 1022.8
20260503173908 78 188 1.0 3.0 0.00 0.06 0.06 42 1022.8